IRIDIUM 90 [P]

Last updated on May 30, 2018, 12:19 a.m. UTC

1 27373U 02005B   18149.60392803  .00085255  22496-6  43381-3 0  9999
2 27373  86.4344 200.0792 0301879  50.4717 312.2800 15.37709139861944

Satellite is not in orbit.